Date,TemperatureHighF,TemperatureAvgF,TemperatureLowF,DewpointHighF,DewpointAvgF,DewpointLowF,HumidityHigh,HumidityAvg,HumidityLow,PressureMaxIn,PressureMinIn,WindSpeedMaxMPH,WindSpeedAvgMPH,GustSpeedMaxMPH,PrecipitationSumIn
2013-1-1,42.2,40.0,36.2,28.8,27.1,21.1,68,60,46,29.96,29.84,17,4,17,0.00
2013-1-2,36.2,31.8,29.1,24.2,14.3,5.9,67,49,35,30.16,29.93,19,3,20,0.00
2013-1-3,39.2,31.3,22.5,21.0,16.0,10.8,78,54,37,30.18,30.07,21,2,21,0.00
2013-1-4,41.2,35.7,33.1,21.2,19.3,17.0,58,51,41,30.13,30.02,24,5,24,0.00
2013-1-5,44.5,36.4,32.5,27.3,20.8,-99.9,72,54,40,30.30,30.07,30,3,30,0.00
2013-1-6,47.9,40.7,29.5,30.4,26.0,-99.9,80,58,39,30.12,29.95,20,2,20,0.00
2013-1-7,43.9,38.5,27.2,28.8,25.2,22.5,84,60,45,30.36,30.07,19,2,19,0.00
2013-1-8,52.5,36.1,27.3,33.7,27.1,21.6,87,71,45,30.34,30.28,11,1,11,0.00
2013-1-9,52.5,39.8,27.5,42.1,31.3,-99.9,92,75,44,30.31,30.16,20,3,20,0.00
2013-1-10,53.5,46.1,40.8,30.6,26.7,22.7,60,47,35,30.53,30.29,21,2,21,0.00
2013-1-11,45.1,40.7,36.0,41.4,34.7,27.8,98,80,59,30.43,30.03,7,0,9,0.11
2013-1-12,58.6,46.4,40.2,48.7,43.2,39.4,99,89,66,30.10,30.02,6,0,6,0.00
2013-1-13,54.8,49.4,43.2,54.8,49.2,42.4,100,99,93,30.04,29.86,10,1,10,0.00
2013-1-14,58.0,51.5,40.6,58.0,43.8,30.9,100,77,51,30.24,29.86,21,3,21,0.07
2013-1-15,41.6,38.7,33.2,39.2,33.9,29.8,97,83,69,30.28,30.09,12,2,12,0.30
2013-1-16,45.7,37.3,32.9,38.8,34.9,31.8,97,91,64,30.11,29.82,17,2,18,0.44
2013-1-17,45.2,41.3,38.0,34.1,27.6,20.2,74,59,39,30.05,29.87,25,3,25,0.00
2013-1-18,38.8,32.2,27.2,26.2,14.5,1.2,65,49,30,30.42,29.98,27,5,27,0.00
2013-1-19,54.4,38.7,27.8,28.9,25.3,16.6,84,61,34,30.33,29.86,20,5,20,0.00
2013-1-20,55.9,42.6,34.3,31.2,19.6,4.2,72,43,16,30.01,29.74,34,8,35,0.00
2013-1-21,42.1,32.3,25.8,22.5,14.9,3.7,60,48,36,30.03,29.75,33,4,33,0.00
2013-1-22,25.7,17.8,14.3,4.2,-5.6,-11.8,48,35,25,30.23,29.90,31,8,31,0.00
2013-1-23,24.7,18.1,11.9,9.1,-3.2,-7.5,61,39,25,30.29,30.08,24,4,24,0.00
2013-1-24,25.6,20.1,15.2,15.5,4.3,-99.9,87,54,27,30.45,30.04,28,4,28,0.00
2013-1-25,24.2,20.2,17.2,17.7,5.5,-99.9,86,56,33,30.45,30.00,17,1,17,0.04
2013-1-26,31.8,26.1,20.0,23.8,18.9,15.4,86,74,56,30.37,30.02,13,0,13,0.00
2013-1-27,38.2,30.4,22.4,23.6,17.2,13.3,79,58,40,30.52,30.37,17,2,17,0.00
2013-1-28,42.8,35.1,31.0,39.6,31.6,19.3,97,88,62,30.41,29.97,12,1,13,0.10
2013-1-29,67.9,53.5,41.1,53.2,46.9,39.1,97,80,58,30.02,29.86,12,1,12,0.00
2013-1-30,69.3,57.7,52.9,61.8,55.6,49.5,100,93,75,29.86,29.13,29,3,29,1.86
2013-1-31,56.0,40.1,29.3,56.0,23.7,5.2,100,54,35,29.82,29.07,44,11,44,0.36
2013-2-1,32.4,24.5,18.0,24.9,7.3,-2.0,91,49,32,30.31,29.76,32,7,33,0.00
2013-2-2,29.3,22.0,15.6,25.1,11.3,0.3,88,64,45,30.31,29.95,16,3,16,0.00
2013-2-3,33.7,28.3,22.9,29.4,23.0,12.1,93,81,53,29.95,29.75,29,3,29,0.00
2013-2-4,36.2,29.7,23.6,24.0,12.7,-99.9,67,50,38,30.03,29.82,32,6,32,0.00
2013-2-5,37.2,33.8,30.9,31.8,27.3,19.2,91,77,55,29.87,29.78,10,1,10,0.01
2013-2-6,39.9,35.7,27.3,31.4,24.9,18.2,92,66,50,30.28,29.85,21,3,21,0.00
2013-2-7,37.9,31.9,23.8,27.8,21.5,18.6,84,66,51,30.38,30.15,13,2,13,0.00
2013-2-8,40.5,35.5,31.5,36.2,29.5,18.8,94,79,56,30.15,29.70,34,5,34,0.03
2013-2-9,38.5,32.3,27.2,19.4,13.6,7.4,62,47,29,30.33,29.86,44,9,44,0.00
2013-2-10,45.4,33.7,20.3,20.4,15.1,9.9,78,49,25,30.41,30.16,18,2,18,0.00
2013-2-11,57.8,44.7,34.9,49.7,37.7,19.4,99,80,24,30.15,29.60,29,3,29,0.25
2013-2-12,55.7,46.2,34.0,30.9,25.9,21.8,74,46,30,29.92,29.74,26,5,26,0.00
2013-2-13,40.9,34.8,28.1,35.3,28.1,23.9,97,77,59,29.89,29.60,14,2,14,0.09
2013-2-14,50.7,39.4,32.2,33.5,28.5,23.3,94,66,42,29.93,29.70,20,2,21,0.00
2013-2-15,56.7,41.3,31.9,37.2,31.3,25.6,95,70,37,29.95,29.84,27,3,27,0.07
2013-2-16,37.9,34.2,29.1,34.9,25.1,12.5,97,72,43,29.93,29.78,25,3,25,0.00
2013-2-17,29.7,25.9,22.9,15.1,8.7,2.6,60,48,33,30.14,29.77,35,10,35,0.00
2013-2-18,42.5,29.8,20.0,18.5,7.4,0.9,55,39,23,30.31,30.07,25,4,26,0.00
2013-2-19,45.4,38.1,31.6,40.3,26.3,12.9,90,64,37,30.07,29.61,31,5,31,0.03
2013-2-20,36.6,29.5,24.8,20.7,11.0,3.6,55,46,37,30.10,29.77,34,10,34,0.00
2013-2-21,36.5,29.2,23.8,14.6,11.1,7.2,56,46,36,30.26,30.06,26,6,26,0.00
2013-2-22,34.7,30.7,28.1,29.1,21.4,13.7,84,69,50,30.31,30.15,11,2,11,0.00
2013-2-23,45.8,37.7,31.3,41.2,35.3,27.3,99,91,81,30.14,29.75,8,1,8,0.00
2013-2-24,47.0,40.0,32.4,42.1,28.6,17.2,98,66,39,30.05,29.72,26,5,26,0.00
2013-2-25,47.7,37.3,30.4,25.9,20.4,16.2,75,51,34,30.14,30.04,20,2,20,0.00
2013-2-26,40.8,35.5,29.0,40.1,30.6,21.9,99,83,62,30.15,29.57,19,3,19,0.84
2013-2-27,54.4,45.2,38.0,41.0,35.7,29.7,99,72,43,29.61,29.47,26,5,26,0.02
2013-2-28,44.5,41.5,37.8,35.5,28.3,22.9,74,59,46,29.65,29.56,26,4,26,0.00
2013-3-1,42.5,38.9,34.1,31.3,26.5,20.3,74,61,49,29.81,29.65,27,8,27,0.00
2013-3-2,35.8,32.8,30.6,22.5,19.3,15.0,65,57,45,29.82,29.75,28,8,28,0.00
2013-3-3,38.6,32.7,29.5,21.0,17.5,14.0,70,54,41,29.85,29.73,28,6,28,0.00
2013-3-4,40.9,33.2,27.5,17.4,14.2,10.0,56,46,33,29.95,29.84,32,8,32,0.00
2013-3-5,47.0,39.4,30.0,26.2,18.6,13.8,63,44,28,30.00,29.75,15,3,17,0.00
2013-3-6,41.6,36.4,32.7,33.9,31.8,25.8,98,84,57,29.94,29.60,37,8,37,0.40
2013-3-7,47.3,41.6,36.9,29.2,25.7,21.3,69,54,39,30.08,29.94,27,8,28,0.00
2013-3-8,48.2,41.6,36.0,27.6,24.7,20.4,68,51,40,30.21,30.08,32,8,32,0.00
2013-3-9,65.2,46.2,34.7,30.5,22.0,9.8,66,41,14,30.28,30.17,13,1,13,0.00
2013-3-10,63.7,47.9,31.0,29.7,23.7,16.8,78,44,19,30.25,30.11,17,3,19,0.00
2013-3-11,58.9,50.8,40.5,48.7,40.3,20.5,90,68,35,30.15,29.81,24,3,24,0.00
2013-3-12,58.6,51.7,42.3,55.1,42.1,26.4,98,71,49,29.89,29.65,24,6,25,0.95
2013-3-13,48.9,40.4,32.7,30.1,22.9,13.7,76,51,27,29.98,29.82,30,6,32,0.00
2013-3-14,42.1,36.0,31.2,18.2,13.5,9.2,56,40,27,30.04,29.94,37,10,37,0.00
2013-3-15,56.7,44.4,30.0,32.9,23.0,14.0,70,44,27,30.01,29.69,22,4,27,0.00
2013-3-16,45.7,40.7,35.6,37.1,33.3,31.3,91,75,59,29.87,29.60,20,4,21,0.00
2013-3-17,41.9,37.1,35.0,32.8,26.6,19.7,89,67,46,30.19,29.86,12,2,12,0.00
2013-3-18,36.5,34.3,32.5,32.5,25.8,17.7,98,73,48,30.24,29.82,16,3,16,0.18
2013-3-19,58.0,43.0,33.4,38.6,26.6,4.4,97,62,15,29.83,29.63,35,5,35,0.00
2013-3-20,52.0,41.8,34.0,25.4,13.8,8.3,59,33,18,29.91,29.68,28,6,29,0.00
2013-3-21,37.6,31.9,27.9,24.6,10.6,2.0,59,41,27,29.82,29.70,27,5,27,0.00
2013-3-22,42.9,34.6,27.0,17.9,14.2,-99.9,57,44,31,29.93,29.80,26,4,26,0.00
2013-3-23,52.2,39.5,26.9,23.4,19.6,16.3,73,47,25,29.96,29.84,24,3,24,0.00
2013-3-24,42.8,36.3,29.0,30.1,22.1,17.7,74,57,42,29.92,29.57,13,1,13,0.00
2013-3-25,37.9,34.8,32.4,35.1,32.2,28.7,96,90,73,29.63,29.45,14,1,14,0.19
2013-3-26,50.4,41.6,34.4,33.7,28.8,19.8,93,63,32,29.91,29.63,26,5,26,0.00
2013-3-27,48.5,42.0,37.6,32.7,26.4,20.5,70,54,36,30.05,29.90,30,6,32,0.00
2013-3-28,47.3,42.4,38.5,29.9,27.7,22.5,67,56,39,30.15,30.00,30,5,30,0.00
2013-3-29,56.3,46.4,40.1,31.2,27.3,20.7,67,49,27,30.17,30.06,21,2,21,0.00
2013-3-30,59.8,46.3,32.7,34.1,25.4,16.3,82,49,19,30.15,30.02,17,1,17,0.00
2013-3-31,49.5,44.4,38.0,48.1,37.8,24.6,97,79,53,30.03,29.67,8,0,10,0.09
2013-4-1,61.3,48.8,39.3,45.0,32.7,10.7,98,56,29,29.91,29.66,31,7,31,0.00
2013-4-2,46.2,38.4,29.1,20.3,13.9,8.1,67,38,22,30.10,29.91,26,4,26,0.00
2013-4-3,48.2,37.9,27.8,20.5,14.4,5.1,65,40,19,30.32,30.10,30,5,30,0.00
2013-4-4,51.1,38.3,24.1,28.9,13.7,7.2,69,39,20,30.34,30.00,17,2,17,0.00
2013-4-5,63.9,50.4,37.3,34.9,26.1,12.4,85,45,21,30.00,29.74,24,5,24,0.00
2013-4-6,58.0,45.5,32.1,23.8,18.4,-99.9,65,36,20,30.26,29.98,19,2,19,0.00
2013-4-7,69.9,54.7,39.1,43.8,33.9,19.2,65,47,31,30.18,29.86,27,6,28,0.00
2013-4-8,81.1,67.8,53.2,48.8,44.5,41.3,69,45,26,29.98,29.83,20,2,20,0.00
2013-4-9,86.1,73.4,61.0,55.7,51.6,45.9,65,48,30,29.98,29.80,20,3,20,0.00
2013-4-10,92.7,78.7,68.1,60.7,54.4,49.3,58,44,27,29.86,29.66,30,4,30,0.00
2013-4-11,87.8,71.6,56.9,61.5,56.5,51.8,85,62,34,29.80,29.63,22,3,22,0.00
2013-4-12,59.0,53.8,50.8,56.1,52.5,45.0,100,96,76,29.73,29.52,18,5,18,0.76
2013-4-13,69.8,57.1,45.4,46.2,34.9,25.4,79,45,26,29.89,29.71,25,5,25,0.00
2013-4-14,68.1,54.9,41.3,42.3,34.6,28.2,79,49,27,30.07,29.89,21,2,21,0.00
2013-4-15,63.2,57.9,53.3,50.1,46.1,39.6,81,65,57,30.20,30.04,16,2,16,0.00
2013-4-16,76.1,64.4,55.4,58.8,53.6,45.3,81,69,52,30.21,30.00,24,4,24,0.00
2013-4-17,68.9,64.0,58.1,62.6,57.3,53.0,99,80,62,30.14,30.02,21,2,21,0.07
2013-4-18,76.7,65.0,58.6,63.4,57.9,53.3,99,79,53,30.14,29.90,21,2,21,0.04
2013-4-19,75.1,65.8,53.6,66.9,58.8,40.1,94,79,61,29.89,29.49,31,7,31,0.41
2013-4-20,58.4,51.3,43.8,42.2,27.4,20.1,66,41,26,30.28,29.70,30,7,30,0.00
2013-4-21,53.1,44.7,35.2,31.3,23.2,15.6,64,44,27,30.53,30.28,14,2,14,0.00
2013-4-22,56.9,46.7,35.8,34.3,31.5,27.2,84,57,36,30.51,30.32,20,3,20,0.00
2013-4-23,60.4,48.6,41.2,42.3,37.3,-99.9,82,67,46,30.35,30.04,12,2,12,0.00
2013-4-24,77.6,58.5,41.9,61.2,47.8,38.3,95,71,41,30.04,29.66,30,4,30,0.12
2013-4-25,66.1,53.3,44.3,43.0,31.3,25.0,65,45,23,30.22,29.91,18,4,34,0.00
2013-4-26,66.4,53.3,40.1,39.6,31.7,-99.9,80,48,22,30.38,30.22,18,1,18,0.00
2013-4-27,73.9,56.5,39.3,43.9,36.6,33.5,85,51,26,30.35,30.18,12,1,13,0.00
2013-4-28,65.8,54.5,45.2,52.4,45.5,37.7,91,73,41,30.19,30.05,18,2,18,0.05
2013-4-29,60.5,55.5,51.3,59.1,53.5,47.0,100,93,72,30.06,29.96,14,1,14,0.22
2013-4-30,61.5,56.8,54.5,57.0,55.5,53.7,100,95,79,30.21,30.02,12,1,12,0.01
2013-5-1,71.6,58.7,45.1,55.5,40.3,27.8,98,57,22,30.34,30.21,13,2,13,0.00
2013-5-2,70.9,56.6,42.3,48.4,44.5,38.4,97,68,32,30.36,30.23,14,2,14,0.00
2013-5-3,68.8,56.8,46.4,47.1,43.2,37.2,90,64,35,30.31,30.20,19,3,19,0.00
2013-5-4,68.6,55.6,42.2,45.5,41.8,36.1,92,64,33,30.26,30.09,17,2,19,0.00
2013-5-5,64.8,53.0,43.1,43.9,40.5,35.1,90,65,36,30.18,30.06,14,2,14,0.00
2013-5-6,61.6,53.6,45.5,58.1,49.5,41.8,97,86,75,30.11,29.98,16,4,19,0.05
2013-5-7,63.4,60.0,56.7,63.1,59.1,55.0,100,97,90,30.00,29.87,14,3,16,0.91
2013-5-8,72.5,61.5,55.1,62.2,56.6,50.6,100,86,52,29.92,29.82,24,1,26,0.10
2013-5-9,76.0,63.1,53.1,59.3,55.9,52.2,100,80,49,29.91,29.83,18,2,18,0.00
2013-5-10,84.7,68.3,53.6,63.5,57.4,52.5,98,73,38,29.92,29.76,34,2,36,0.45
2013-5-11,77.9,67.3,61.6,66.5,61.0,52.0,99,82,56,29.79,29.62,21,2,21,0.36
2013-5-12,63.4,57.3,48.3,54.7,34.7,20.0,78,45,25,29.95,29.66,28,8,29,0.00
2013-5-13,59.0,49.9,40.5,34.5,26.9,17.7,77,43,21,30.10,29.94,29,4,29,0.00
2013-5-14,65.8,51.6,36.3,46.7,32.7,24.1,87,52,26,30.13,29.96,17,1,17,0.00
2013-5-15,85.7,65.4,51.4,66.8,52.2,38.9,86,63,48,29.97,29.58,36,2,36,0.08
2013-5-16,79.9,73.8,68.1,63.9,58.7,52.5,86,60,46,29.82,29.64,30,6,30,0.00
2013-5-17,84.9,73.0,59.3,60.6,52.8,38.7,92,53,27,30.05,29.82,19,2,21,0.00
2013-5-18,68.6,63.4,58.3,58.4,54.9,46.3,99,75,47,30.14,30.04,13,2,13,0.03
2013-5-19,74.0,63.9,58.3,66.2,62.0,57.8,100,94,73,30.13,29.99,10,1,10,0.07
2013-5-20,85.3,72.7,65.6,68.9,66.5,63.8,100,83,54,30.03,29.88,13,2,13,0.03
2013-5-21,87.8,75.8,66.1,71.5,68.6,64.6,100,80,53,29.89,29.76,16,3,16,0.00
2013-5-22,91.6,76.7,66.8,73.1,69.1,62.3,100,80,41,29.85,29.70,32,4,32,0.60
2013-5-23,80.7,69.9,65.2,70.0,66.6,63.8,100,90,63,29.79,29.65,14,2,14,0.09
2013-5-24,65.8,56.1,47.3,65.3,45.5,29.5,100,69,47,30.10,29.64,31,6,32,0.05
2013-5-25,65.3,54.2,42.5,37.0,33.1,29.2,72,47,28,30.11,30.00,29,8,29,0.00
2013-5-26,71.5,59.5,47.9,43.4,35.4,30.2,65,42,23,30.13,30.04,24,5,24,0.00
2013-5-27,71.3,61.7,44.6,52.5,42.7,33.7,86,52,29,30.20,30.09,11,1,12,0.00
2013-5-28,79.6,66.4,56.6,66.0,58.3,49.7,95,76,55,30.11,29.97,9,0,10,0.02
2013-5-29,91.0,77.4,64.3,69.0,65.2,58.7,100,70,37,30.02,29.95,20,3,21,0.00
2013-5-30,95.4,81.4,68.4,70.0,66.4,60.8,91,64,34,30.07,29.98,17,1,17,0.00
2013-5-31,91.2,80.2,68.4,68.8,64.5,58.3,90,62,34,30.04,29.91,19,3,19,0.00
2013-6-1,93.2,80.4,69.1,68.8,66.1,63.5,86,64,40,29.93,29.79,20,3,20,0.00
2013-6-2,83.0,74.6,69.6,72.3,67.7,63.8,97,80,64,29.79,29.73,18,4,19,0.09
2013-6-3,81.8,72.8,66.9,69.0,62.7,-99.9,100,74,51,29.85,29.74,26,3,26,0.49
2013-6-4,78.3,66.8,56.3,55.2,45.0,-99.9,82,49,29,30.04,29.86,19,3,19,0.00
2013-6-5,81.4,67.5,53.5,58.2,53.3,47.7,91,63,39,30.10,29.94,14,2,14,0.00
2013-6-6,70.8,65.3,62.0,66.0,60.2,52.8,100,85,63,29.97,29.79,14,1,14,0.46
2013-6-7,68.8,66.0,62.7,68.6,65.7,62.7,100,99,91,29.78,29.53,17,3,17,0.30
2013-6-8,81.4,70.8,64.2,65.7,61.0,57.6,94,73,47,30.01,29.62,19,3,19,0.00
2013-6-9,81.6,70.7,60.9,70.6,63.2,57.8,97,79,54,30.11,30.00,11,1,11,0.14
2013-6-10,80.1,71.3,68.3,75.1,69.9,67.6,100,96,77,30.01,29.68,22,2,22,1.07
2013-6-11,82.6,73.5,65.3,68.8,65.3,62.8,100,77,57,29.74,29.68,25,4,25,0.00
2013-6-12,90.5,78.0,66.9,72.4,66.4,62.8,90,69,44,29.77,29.67,19,2,19,0.00
2013-6-13,85.1,73.4,68.3,70.9,65.7,54.4,100,78,53,29.70,29.36,32,5,32,0.29
2013-6-14,79.4,70.2,63.2,57.1,53.3,46.2,73,56,33,29.88,29.51,25,6,25,0.00
2013-6-15,84.0,72.5,62.7,60.4,54.7,-99.9,79,57,30,29.99,29.88,18,3,18,0.00
2013-6-16,84.0,73.7,63.1,67.6,60.7,53.2,82,65,44,29.93,29.78,20,2,20,0.00
2013-6-17,88.6,78.7,68.3,72.0,66.2,61.6,85,67,49,29.86,29.77,15,2,16,0.00
2013-6-18,76.7,72.1,66.0,72.5,68.3,64.8,98,88,75,29.81,29.69,13,0,13,0.31
2013-6-19,81.1,69.7,62.7,65.8,60.0,54.0,99,74,43,30.06,29.80,13,2,13,0.08
2013-6-20,81.8,70.6,60.9,66.6,61.0,56.5,100,74,46,30.17,30.06,17,2,17,0.00
2013-6-21,84.3,72.1,58.4,61.0,56.3,48.3,93,61,38,30.21,30.12,14,2,14,0.00
2013-6-22,89.7,75.4,60.1,68.4,63.6,53.4,98,69,45,30.16,30.02,17,2,17,0.00
2013-6-23,89.9,78.3,68.6,71.6,69.2,66.3,96,76,47,30.09,29.96,10,1,10,0.00
2013-6-24,96.8,78.9,70.8,72.1,69.2,62.7,94,74,38,30.02,29.92,29,2,29,0.54
2013-6-25,94.0,81.6,69.4,73.1,69.1,-99.9,97,69,45,29.93,29.77,38,3,38,0.08
2013-6-26,91.0,76.2,68.3,75.7,68.3,63.0,98,78,52,29.83,29.72,15,2,26,1.06
2013-6-27,84.7,76.5,68.8,74.2,70.3,66.3,99,82,65,29.73,29.51,24,3,24,0.00
2013-6-28,89.9,78.6,71.3,72.1,67.2,61.4,88,69,47,29.51,29.37,19,3,19,0.00
2013-6-29,90.1,77.5,68.8,69.8,63.5,57.0,99,65,36,29.60,29.41,26,2,26,0.35
2013-6-30,89.3,76.7,67.9,74.4,70.8,67.5,99,83,56,29.75,29.59,17,2,17,0.18
2013-7-1,83.2,76.3,71.8,73.0,71.5,69.2,99,86,66,29.87,29.73,17,2,17,0.03
2013-7-2,83.2,77.4,74.2,73.3,72.1,69.0,95,84,68,30.06,29.87,24,5,24,0.00
2013-7-3,85.5,77.2,72.5,75.7,72.9,70.2,100,87,68,30.13,30.05,17,3,17,0.24
2013-7-4,89.7,81.0,74.0,74.8,72.8,69.1,100,78,55,30.15,30.05,20,4,21,0.00
2013-7-5,90.3,81.0,73.0,74.4,72.4,70.1,96,77,56,30.12,30.01,21,4,21,0.00
2013-7-6,96.1,84.1,73.7,74.4,72.4,68.8,98,71,45,30.08,29.95,17,2,19,0.00
2013-7-7,94.0,78.7,70.9,74.1,70.9,67.1,99,79,49,30.00,29.88,36,2,41,0.18
2013-7-8,88.6,78.0,70.4,72.8,69.3,64.2,99,77,48,30.01,29.93,19,2,21,0.05
2013-7-9,85.1,78.1,73.3,75.2,71.2,66.8,92,80,64,30.01,29.89,13,2,13,0.05
2013-7-10,88.2,79.5,74.9,76.1,72.6,67.0,95,80,50,29.90,29.76,24,2,24,0.04
2013-7-11,86.7,78.5,73.5,72.2,67.6,62.5,95,70,52,29.83,29.75,12,2,13,0.00
2013-7-12,75.3,71.0,65.6,69.4,66.1,61.0,100,85,64,29.96,29.81,16,3,17,0.28
2013-7-13,86.3,76.9,69.1,74.6,71.0,68.0,100,83,59,30.17,29.94,13,1,13,0.05
2013-7-14,92.3,82.2,74.6,75.8,73.1,68.3,99,76,48,30.24,30.16,14,2,14,0.00
2013-7-15,95.1,83.8,72.3,78.1,72.7,68.5,100,72,45,30.20,30.08,12,1,14,0.00
2013-7-16,94.7,85.4,77.9,75.2,70.9,65.8,84,64,41,30.15,30.07,14,2,14,0.00
2013-7-17,97.8,85.4,75.1,75.8,70.3,60.2,93,64,31,30.12,29.98,13,1,13,0.00
2013-7-18,99.7,87.1,75.4,81.1,75.0,69.9,93,69,42,30.01,29.89,12,1,14,0.00
2013-7-19,99.2,86.5,78.1,78.4,75.3,68.1,92,71,46,29.90,29.75,18,2,19,0.00
2013-7-20,95.6,82.8,76.0,77.7,70.8,65.0,85,68,46,29.79,29.68,26,3,26,0.00
2013-7-21,89.5,79.9,72.5,75.0,71.2,65.2,94,76,55,29.84,29.78,11,0,11,0.00
2013-7-22,89.9,78.5,70.8,77.1,72.6,69.8,100,84,54,29.83,29.65,15,1,16,1.91
2013-7-23,86.7,77.8,72.0,73.9,70.6,65.5,100,81,52,29.67,29.55,24,2,24,0.02
2013-7-24,83.4,76.0,67.8,70.2,62.3,55.2,84,63,46,29.84,29.58,19,3,19,0.00
2013-7-25,78.5,68.5,58.9,62.3,55.1,46.8,81,64,36,29.95,29.84,14,3,14,0.00
2013-7-26,85.9,73.3,61.2,65.9,60.7,54.2,100,68,35,30.00,29.92,13,1,13,0.00
2013-7-27,84.7,71.2,62.4,73.9,66.6,59.8,100,86,61,29.96,29.83,19,2,19,0.50
2013-7-28,87.8,75.1,65.5,71.8,68.8,63.6,100,83,48,29.91,29.79,27,1,34,0.31
2013-7-29,83.8,71.0,58.7,66.6,58.3,50.5,100,69,38,30.07,29.91,14,2,17,0.00
2013-7-30,85.3,72.5,59.3,65.6,58.8,53.4,98,65,38,30.14,30.04,16,1,16,0.00
2013-7-31,80.7,71.7,63.4,68.6,64.9,61.6,100,80,60,30.07,29.92,18,1,19,0.03
2013-8-1,85.1,74.9,68.1,73.0,69.5,66.3,100,85,56,29.91,29.72,14,2,14,0.26
2013-8-2,86.7,76.9,68.8,67.8,62.9,54.5,86,64,36,29.87,29.76,17,3,19,0.00
2013-8-3,74.2,71.1,66.9,69.2,64.9,58.5,98,81,62,29.88,29.82,12,2,12,0.12
2013-8-4,80.1,72.2,65.0,65.9,57.0,49.7,95,61,36,29.94,29.83,24,4,24,0.00
2013-8-5,83.6,71.4,57.3,62.8,55.4,46.7,91,60,32,30.02,29.92,13,1,13,0.00
2013-8-6,78.1,68.5,62.3,69.2,64.4,57.1,100,87,68,29.99,29.92,12,1,12,0.45
2013-8-7,84.7,74.5,68.6,75.0,70.4,67.1,100,88,64,29.98,29.88,17,2,17,0.61
2013-8-8,84.0,75.8,69.8,76.5,73.0,69.8,100,92,71,29.94,29.86,19,2,19,0.04
2013-8-9,86.7,78.9,74.2,76.9,74.5,70.2,100,87,66,29.87,29.76,18,3,18,0.62
2013-8-10,86.5,77.1,69.3,71.5,66.8,57.0,94,73,40,29.99,29.85,10,0,12,0.00
2013-8-11,88.2,76.1,66.6,70.6,66.3,62.5,95,74,49,30.03,29.90,14,2,17,0.00
2013-8-12,90.5,78.9,70.1,73.6,69.9,61.5,100,76,44,29.93,29.81,12,1,12,0.02
2013-8-13,86.7,75.9,69.8,72.7,68.7,57.2,100,80,52,29.81,29.64,16,2,16,0.34
2013-8-14,73.9,66.8,56.3,58.1,50.9,46.0,80,57,43,30.01,29.74,27,5,27,0.00
2013-8-15,80.3,66.8,53.1,57.4,51.6,42.1,95,62,34,30.11,30.00,12,1,12,0.00
2013-8-16,81.6,67.2,54.5,60.8,54.8,47.8,97,69,36,30.11,30.04,9,0,10,0.00
2013-8-17,79.4,68.7,56.3,61.4,57.0,52.5,97,69,42,30.18,30.11,13,1,13,0.00
2013-8-18,72.8,67.2,64.0,64.3,61.9,58.7,100,83,62,30.17,30.09,13,2,13,0.00
2013-8-19,80.1,69.0,61.0,70.1,65.3,60.2,100,89,67,30.09,29.97,11,1,11,0.00
2013-8-20,88.2,75.3,63.5,70.4,66.0,59.8,100,77,42,30.07,29.99,14,1,14,0.00
2013-8-21,89.7,77.3,65.3,74.1,68.9,63.2,99,77,52,30.11,29.96,16,1,16,0.00
2013-8-22,87.6,78.2,69.6,72.8,67.8,61.0,97,72,55,29.98,29.82,17,3,17,0.00
2013-8-23,77.7,71.8,63.1,70.2,66.3,62.0,100,84,62,30.04,29.84,11,1,12,0.10
2013-8-24,81.1,69.6,58.7,63.4,58.2,46.5,100,71,31,30.25,30.04,16,1,16,0.00
2013-8-25,85.3,70.8,58.6,66.7,59.3,53.4,97,71,35,30.33,30.16,12,1,12,0.00
2013-8-26,88.8,74.9,61.5,66.6,62.3,57.4,93,67,44,30.19,29.89,19,2,19,0.00
2013-8-27,92.1,80.5,73.0,73.8,69.0,63.5,82,68,49,29.89,29.77,18,3,18,0.00
2013-8-28,78.8,75.3,71.5,74.6,71.8,68.1,100,90,72,29.81,29.72,13,1,13,0.09
2013-8-29,84.5,75.8,70.1,72.7,69.8,65.5,100,83,55,29.92,29.75,13,2,13,0.00
2013-8-30,89.3,76.5,68.4,72.4,69.7,65.1,100,82,49,29.94,29.77,14,3,16,0.00
2013-8-31,92.3,79.5,70.3,76.7,71.9,68.9,100,79,50,29.79,29.67,11,2,12,0.00
2013-9-1,94.9,80.1,69.1,76.8,71.8,68.2,100,79,43,29.73,29.64,14,1,14,0.04
2013-9-2,92.5,80.3,72.0,74.5,71.9,67.7,100,78,47,29.70,29.60,13,1,13,0.04
2013-9-3,84.3,75.6,66.3,74.0,61.5,53.1,97,64,37,29.88,29.62,14,3,17,0.00
2013-9-4,83.4,71.0,60.5,60.1,54.9,44.9,84,59,28,29.99,29.88,19,3,19,0.00
2013-9-5,82.2,71.8,62.7,62.6,55.0,43.1,80,58,32,30.05,29.92,21,4,22,0.00
2013-9-6,78.1,64.7,55.4,52.1,47.5,39.1,76,56,32,30.19,30.04,16,2,16,0.00
2013-9-7,83.6,66.6,51.1,61.4,54.9,48.7,96,69,39,30.07,29.84,12,1,13,0.00
2013-9-8,85.9,74.2,63.2,66.5,63.0,56.0,96,70,50,29.98,29.78,17,2,17,0.02
2013-9-9,79.0,68.2,59.3,66.9,55.3,46.0,91,64,53,30.12,29.98,12,2,12,0.00
2013-9-10,93.8,79.6,68.3,73.8,70.6,66.4,100,77,46,30.07,29.96,14,2,14,0.00
2013-9-11,96.3,83.7,72.8,76.4,73.7,69.5,100,74,47,30.03,29.89,17,1,17,0.00
2013-9-12,92.7,79.3,73.0,74.3,70.4,61.2,95,76,49,29.89,29.64,19,2,19,0.00
2013-9-13,76.8,69.3,58.6,65.7,55.1,44.8,84,62,36,29.86,29.60,30,4,30,0.00
2013-9-14,68.3,59.1,50.2,49.3,44.7,41.0,89,61,39,30.08,29.86,17,4,17,0.00
2013-9-15,78.1,61.9,45.2,60.2,50.6,43.3,97,70,39,30.15,29.98,14,1,17,0.00
2013-9-16,73.2,64.1,58.4,62.7,57.1,52.5,100,80,51,30.17,29.94,17,1,17,0.12
2013-9-17,67.6,56.7,47.3,53.8,42.6,31.1,84,62,28,30.36,30.17,17,3,17,0.00
2013-9-18,73.7,57.3,43.1,51.3,46.0,40.6,99,70,33,30.27,30.09,14,1,14,0.00
2013-9-19,81.1,62.8,48.6,60.9,53.3,46.9,99,75,41,30.12,29.98,11,1,11,0.00
2013-9-20,81.6,67.8,55.0,62.3,59.2,54.9,100,77,49,30.00,29.85,16,2,16,0.00
2013-9-21,72.8,65.9,61.6,67.3,62.8,60.2,100,90,69,29.86,29.59,29,3,29,0.38
2013-9-22,71.8,63.3,57.8,62.4,52.0,44.7,100,70,41,29.87,29.64,19,4,19,0.00
2013-9-23,67.1,58.2,49.6,47.2,43.3,40.0,89,59,40,30.02,29.87,16,3,17,0.00
2013-9-24,74.9,57.1,43.3,52.5,46.3,41.1,99,72,35,30.04,29.86,18,1,18,0.00
2013-9-25,75.8,59.8,46.0,52.9,45.7,37.3,100,66,25,29.91,29.79,12,1,12,0.00
2013-9-26,76.7,60.4,49.9,56.6,49.6,46.1,94,71,35,29.98,29.85,12,1,13,0.00
2013-9-27,54.7,54.1,53.5,51.8,51.6,51.3,94,91,89,30.00,29.99,0,0,0,0.00
2013-9-28,68.8,60.3,52.3,57.4,54.1,48.4,100,82,51,30.23,30.14,5,0,13,0.00
2013-9-29,76.3,59.6,46.7,56.4,51.5,45.9,100,78,39,30.15,29.97,5,0,12,0.00
2013-9-30,79.0,62.7,49.5,59.1,53.9,48.7,100,77,40,30.01,29.88,10,1,11,0.00
2013-10-1,81.6,67.5,55.4,62.1,57.9,54.0,99,75,41,29.98,29.87,17,2,17,0.00
2013-10-2,86.1,71.3,59.3,63.0,59.8,57.2,97,70,41,29.99,29.89,18,2,19,0.00
2013-10-3,85.7,71.8,59.8,67.1,62.5,58.9,100,75,46,30.04,29.93,10,0,10,0.00
2013-10-4,88.4,72.7,61.6,68.7,64.5,60.5,100,79,41,30.00,29.91,10,1,10,0.00
2013-10-5,90.3,76.4,66.0,68.4,65.7,61.0,98,72,40,29.99,29.89,13,1,13,0.00
2013-10-6,89.0,76.0,64.0,69.0,65.5,60.4,100,73,40,29.93,29.79,24,4,24,0.00
2013-10-7,74.7,66.5,57.2,69.1,58.9,42.5,100,78,52,29.97,29.64,29,5,29,0.95
2013-10-8,67.8,57.4,46.2,51.9,45.2,38.2,100,66,35,30.21,29.97,16,2,18,0.00
2013-10-9,60.5,55.4,50.8,49.2,46.6,42.9,87,73,59,30.26,30.15,16,3,16,0.01
2013-10-10,58.1,55.3,52.2,58.1,52.8,47.1,100,92,73,30.15,29.93,19,7,22,2.16
2013-10-11,62.0,59.6,57.5,62.0,59.5,57.0,100,100,97,29.93,29.88,19,6,19,0.76
2013-10-12,70.3,63.4,60.5,61.6,57.9,51.0,100,83,56,30.09,29.91,20,5,20,0.33
2013-10-13,61.3,59.0,57.5,60.5,57.9,54.8,100,96,87,30.25,30.09,14,3,14,0.08
2013-10-14,70.6,59.9,54.4,57.4,53.4,51.0,99,80,56,30.27,30.14,10,1,10,0.00
2013-10-15,73.9,59.6,49.4,57.1,51.8,46.5,100,78,43,30.16,30.00,7,0,7,0.00
2013-10-16,71.1,63.6,57.2,63.2,58.9,51.4,100,85,71,30.00,29.82,10,1,10,0.00
2013-10-17,78.1,66.5,60.4,66.8,62.3,49.0,100,88,56,29.81,29.60,22,2,24,0.06
2013-10-18,66.8,57.2,46.5,49.2,43.0,37.8,92,61,38,29.93,29.74,28,3,28,0.00
2013-10-19,63.7,53.2,44.2,57.9,48.1,41.8,97,83,62,29.92,29.68,21,2,21,0.19
2013-10-20,63.9,51.7,40.2,43.8,38.2,32.4,94,63,32,30.01,29.78,21,3,21,0.00
2013-10-21,67.8,51.9,38.3,45.6,40.7,34.4,98,70,31,30.06,29.86,22,2,22,0.00
2013-10-22,60.7,52.8,43.3,50.5,42.0,28.4,88,68,33,29.86,29.74,19,3,20,0.00
2013-10-23,54.2,46.5,41.5,40.3,36.1,28.8,88,68,39,29.82,29.60,20,2,20,0.00
2013-10-24,49.6,43.6,36.9,35.8,30.8,24.0,80,62,37,30.06,29.81,26,5,26,0.00
2013-10-25,53.2,43.2,36.0,33.7,30.3,26.9,80,62,37,30.23,30.05,21,4,21,0.00
2013-10-26,56.5,45.7,32.2,32.7,28.4,24.1,83,53,31,30.22,29.85,25,4,25,0.00
2013-10-27,60.2,49.3,38.0,36.8,32.5,27.8,83,54,30,30.07,29.86,20,2,20,0.00
2013-10-28,63.4,46.7,33.8,42.1,35.4,30.3,89,68,32,30.20,30.07,12,1,12,0.00
2013-10-29,62.6,48.7,38.6,43.7,38.3,34.2,88,70,41,30.32,30.20,6,1,9,0.00
2013-10-30,70.3,56.4,45.8,56.1,49.9,41.0,98,80,52,30.24,30.05,10,1,10,0.04
2013-10-31,69.3,61.5,56.2,62.6,58.6,54.7,100,91,68,30.09,29.64,20,3,20,0.03
2013-11-1,76.0,64.9,51.0,64.0,54.1,41.2,100,72,31,29.64,29.44,26,5,28,0.27
2013-11-2,65.5,55.4,47.9,50.5,44.2,37.0,98,68,45,29.79,29.56,25,4,25,0.00
2013-11-3,55.3,49.1,37.5,41.3,29.9,14.3,75,50,20,30.40,29.78,24,5,24,0.00
2013-11-4,44.6,37.8,31.9,28.7,22.2,17.7,70,54,38,30.57,30.40,14,1,14,0.00
2013-11-5,57.0,46.6,34.7,46.4,35.4,24.6,80,66,50,30.55,30.36,7,0,7,0.00
2013-11-6,66.8,57.1,47.7,51.2,47.8,42.5,87,72,55,30.36,29.95,22,3,22,0.00
2013-11-7,59.5,53.1,42.9,55.5,43.6,19.6,93,72,38,29.99,29.79,30,4,32,0.12
2013-11-8,49.4,42.4,32.2,29.8,24.2,18.3,78,50,31,30.24,29.99,28,5,28,0.00
2013-11-9,53.9,41.8,29.3,30.9,27.2,24.6,86,59,34,30.27,29.94,20,3,21,0.00
2013-11-10,59.0,47.7,36.5,36.1,28.5,24.5,77,49,30,30.15,29.88,30,6,31,0.00
2013-11-11,56.9,47.9,40.5,33.3,28.8,25.2,64,48,31,30.20,29.92,19,4,19,0.00
2013-11-12,53.9,39.5,30.1,37.5,20.3,9.3,69,46,31,30.33,29.88,26,6,26,0.00
2013-11-13,42.5,35.1,29.0,19.9,17.3,13.7,63,49,34,30.41,30.29,21,5,24,0.00
2013-11-14,58.4,42.3,32.1,25.2,15.7,7.7,70,37,17,30.29,30.13,17,3,17,0.00
2013-11-15,62.6,44.1,28.8,36.7,26.5,18.5,78,53,20,30.19,30.09,10,1,11,0.00
2013-11-16,57.8,50.0,41.5,52.0,45.4,34.1,99,85,58,30.24,30.14,12,1,13,0.02
2013-11-17,60.7,56.3,51.4,59.8,55.7,51.1,100,98,92,30.14,29.60,20,3,20,0.00
2013-11-18,65.3,59.0,48.8,60.3,33.1,21.2,98,41,20,29.86,29.58,29,9,30,0.07
2013-11-19,48.9,42.5,35.6,27.1,24.1,21.6,62,48,37,30.30,29.86,28,6,28,0.00
2013-11-20,46.0,35.9,28.4,25.9,19.5,8.0,79,54,25,30.49,30.30,12,1,12,0.00
2013-11-21,47.6,39.2,29.4,36.7,29.8,21.6,83,69,58,30.50,30.30,7,0,8,0.00
2013-11-22,59.5,52.5,45.1,52.7,44.7,35.6,84,75,67,30.30,29.92,24,3,24,0.00
2013-11-23,53.9,41.0,29.1,43.9,23.1,5.1,73,50,33,30.16,29.97,27,8,29,0.00
2013-11-24,29.5,25.5,22.9,9.1,5.5,0.5,53,42,30,30.44,30.16,30,8,32,0.00
2013-11-25,37.5,28.7,19.4,11.2,6.8,2.1,60,40,24,30.49,30.25,20,4,20,0.00
2013-11-26,38.0,33.8,31.9,38.0,26.0,10.4,100,77,41,30.24,29.55,25,2,25,0.99
2013-11-27,40.6,36.7,28.4,37.9,28.8,12.7,100,74,50,29.96,29.45,37,7,37,0.10
2013-11-28,36.2,31.1,26.9,22.9,13.9,8.2,67,49,35,30.40,29.96,22,4,24,0.00
2013-11-29,39.5,32.1,24.7,24.1,19.2,16.0,79,60,39,30.66,30.39,20,2,20,0.00
2013-11-30,28.2,25.1,21.4,18.7,16.3,14.6,79,69,64,30.66,30.64,5,2,6,0.00
2013-12-1,44.9,34.5,22.5,30.4,24.2,17.9,86,67,46,30.32,29.94,7,0,7,0.00
2013-12-2,45.2,40.2,37.2,33.5,30.3,26.9,78,67,60,29.94,29.80,7,0,7,0.00
2013-12-3,57.8,44.6,36.0,39.8,35.2,32.6,94,71,45,29.91,29.80,10,0,10,0.00
2013-12-4,56.6,46.4,35.5,48.1,40.3,33.0,96,80,61,30.01,29.91,7,0,7,0.00
2013-12-5,67.3,58.4,51.6,60.6,54.9,47.6,100,89,70,29.97,29.82,17,2,18,0.01
2013-12-6,62.1,47.9,36.9,62.1,46.8,35.5,100,96,86,30.11,29.78,19,3,19,1.13
2013-12-7,39.2,36.1,30.0,37.3,27.1,16.9,98,71,52,30.47,30.09,25,4,26,0.00
2013-12-8,31.2,26.7,24.4,29.8,22.5,15.3,99,85,61,30.52,30.24,12,2,12,0.51
2013-12-9,35.9,32.8,29.8,34.4,31.9,28.8,100,97,89,30.24,29.95,13,2,13,0.17
2013-12-10,39.2,34.1,26.3,34.1,26.0,13.3,99,73,52,30.14,29.92,22,3,22,0.24
2013-12-11,37.6,28.3,21.3,18.9,15.1,11.1,82,58,39,30.32,30.13,18,3,19,0.00
2013-12-12,34.9,26.8,23.0,20.9,7.2,-3.2,69,44,26,30.37,30.16,21,5,21,0.00
2013-12-13,40.8,30.4,21.1,22.1,12.5,4.1,69,48,30,30.24,30.13,18,2,18,0.00
2013-12-14,35.0,32.2,30.3,35.0,28.2,20.2,100,86,64,30.27,29.66,14,3,14,0.34
2013-12-15,42.3,35.5,31.8,34.4,27.9,18.2,100,75,55,29.86,29.56,26,5,30,0.00
2013-12-16,36.8,32.1,28.8,25.6,20.0,15.5,68,61,54,30.12,29.85,17,3,22,0.00
2013-12-17,37.8,31.1,27.8,30.1,26.5,20.1,92,83,64,30.08,29.87,10,1,11,0.00
2013-12-18,38.9,33.2,27.3,26.7,20.7,16.4,92,61,47,30.13,29.92,19,2,20,0.00
2013-12-19,52.9,37.4,23.8,33.8,25.5,18.9,87,63,43,30.12,29.98,12,1,12,0.00
2013-12-20,51.6,45.0,37.6,36.0,31.4,28.0,74,59,46,30.01,29.90,10,1,10,0.00
2013-12-21,68.6,55.5,43.1,59.2,46.7,35.7,88,73,57,29.92,29.78,15,2,15,0.00
2013-12-22,70.1,63.7,59.8,65.3,61.0,56.8,100,91,78,29.89,29.69,27,5,28,0.20
2013-12-23,60.2,52.1,36.6,60.2,45.8,21.8,100,80,55,30.17,29.81,26,4,26,0.52
2013-12-24,39.1,31.5,21.9,28.2,15.6,0.6,88,52,33,30.40,30.13,34,6,34,0.00
2013-12-25,31.8,25.6,19.1,16.0,8.8,3.6,66,49,35,30.51,30.30,15,2,16,0.00
2013-12-26,44.5,32.5,22.9,23.4,19.1,14.3,79,60,32,30.30,30.13,28,2,28,0.00
2013-12-27,50.7,37.8,25.6,22.8,17.8,10.4,79,48,22,30.33,30.22,17,2,18,0.00
2013-12-28,59.2,44.7,31.0,29.1,22.9,17.6,66,44,24,30.24,30.01,19,3,19,0.00
2013-12-29,47.3,44.0,39.6,45.5,38.2,24.8,100,82,45,30.01,29.48,13,3,18,0.65
2013-12-30,48.2,39.4,29.0,39.5,27.8,16.9,79,63,52,30.11,29.72,22,4,22,0.00
2013-12-31,41.2,32.8,28.2,25.9,18.8,11.6,75,57,39,30.24,30.02,34,5,34,0.00
2014-1-1,46.4,33.9,25.1,27.2,21.5,15.4,77,61,38,30.33,30.06,17,3,18,0.00
2014-1-2,32.9,30.4,25.3,31.0,26.7,21.0,100,86,70,30.05,29.58,14,4,14,0.09